Location: Betzi
(47.2343°N, 9.5260°E)
Time: 22:07:48
(UTC+00:00)

MOS 1 Rocket - Pass Details

Date: 27 May 2022
Orbit: 615 x 827 km, 97.5° (Epoch: 29 June)

Event Time Altitude Azimuth Distance (km) Brightness Sun altitude
Exits shadow 01:33:19 19° 174° (S) 1,474 4.5 -15.1°
Maximum altitude 01:36:21 75° 258° (WSW) 643 3.0 -14.8°
Drops below altitude 10° 01:40:41 10° 344° (NNW) 2,007 6.2 -14.4°
Sets 01:42:55 0° 346° (NNW) 2,936 7.2 -14.2°
